Location: Arbon
(43.0005°N, 0.7472°E)
Time: 00:53:51
(UTC+00:00)

S-56A Canister/Altair - Pass Details

Date: 04 December 2020
Orbit: 633 x 2499 km, 38.9° (Epoch: 19 January)

Event Time Altitude Azimuth Distance (km) Brightness Sun altitude
Rises 20:37:20 0° 270° (W) 5,631 12.7 -45.7°
Reaches altitude 10° 20:41:27 10° 268° (W) 4,377 11.9 -46.5°
Enters shadow 20:48:45 41° 255° (WSW) 2,207 9.9 -47.8°
